owner,sensor,date,latitude,longitude,vertical_datum,wind_speed,wind_to_direction,wind_speed_of_gust,qcFlag 
DISL,ioos:station:DISL:KATA:1,2012-10-01T00:00:00Z,30.2583,-88.2131,0.0,11.0,184.8,-9999.0,'1111122,1111122,1111122' 
DISL,ioos:station:DISL:KATA:1,2012-10-01T00:30:00Z,30.2583,-88.2131,0.0,10.47,187.0,-9999.0,'1111122,1111122,1111122' 
DISL,ioos:station:DISL:KATA:1,2012-10-01T01:00:00Z,30.2583,-88.2131,0.0,9.94,184.5,-9999.0,'1111122,1111122,1111122' 
DISL,ioos:station:DISL:KATA:1,2012-10-01T01:30:00Z,30.2583,-88.2131,0.0,11.2,182.2,-9999.0,'1111122,1111122,1111122' 
DISL,ioos:station:DISL:KATA:1,2012-10-01T02:00:00Z,30.2583,-88.2131,0.0,10.71,182.2,-9999.0,'1111122,1111122,1111122' 
DISL,ioos:station:DISL:KATA:1,2012-10-01T02:30:00Z,30.2583,-88.2131,0.0,11.31,175.3,-9999.0,'1111122,1111122,1111122' 
DISL,ioos:station:DISL:KATA:1,2012-10-01T03:00:00Z,30.2583,-88.2131,0.0,12.32,178.7,-9999.0,'1111122,1111122,1111122' 
DISL,ioos:station:DISL:KATA:1,2012-10-01T03:30:00Z,30.2583,-88.2131,0.0,13.39,182.4,-9999.0,'1111122,1111122,1111122' 
DISL,ioos:station:DISL:KATA:1,2012-10-01T04:00:00Z,30.2583,-88.2131,0.0,12.48,183.5,-9999.0,'1111122,1111122,1111122' 
DISL,ioos:station:DISL:KATA:1,2012-10-01T04:30:00Z,30.2583,-88.2131,0.0,13.99,190.6,-9999.0,'1111122,1111122,1111122' 
DISL,ioos:station:DISL:KATA:1,2012-10-01T05:00:00Z,30.2583,-88.2131,0.0,12.18,209.0,-9999.0,'1111122,1111122,1111122' 
DISL,ioos:station:DISL:KATA:1,2012-10-01T05:30:00Z,30.2583,-88.2131,0.0,11.0,205.5,-9999.0,'1111122,1111122,1111122' 
DISL,ioos:station:DISL:KATA:1,2012-10-01T06:00:00Z,30.2583,-88.2131,0.0,10.18,199.6,-9999.0,'1111122,1111122,1111122' 
DISL,ioos:station:DISL:KATA:1,2012-10-01T06:30:00Z,30.2583,-88.2131,0.0,10.81,198.4,-9999.0,'1111122,1111122,1111122' 
DISL,ioos:station:DISL:KATA:1,2012-10-01T07:00:00Z,30.2583,-88.2131,0.0,10.8,201.1,-9999.0,'1111122,1111122,1111122' 
DISL,ioos:station:DISL:KATA:1,2012-10-01T07:30:00Z,30.2583,-88.2131,0.0,10.56,202.4,-9999.0,'1111122,1111122,1111122' 
DISL,ioos:station:DISL:KATA:1,2012-10-01T08:00:00Z,30.2583,-88.2131,0.0,10.61,208.2,-9999.0,'1111122,1111122,1111122' 
DISL,ioos:station:DISL:KATA:1,2012-10-01T08:30:00Z,30.2583,-88.2131,0.0,12.09,206.8,-9999.0,'1111122,1111122,1111122' 
DISL,ioos:station:DISL:KATA:1,2012-10-01T09:00:00Z,30.2583,-88.2131,0.0,11.19,223.5,-9999.0,'1111122,1111122,1111122' 
DISL,ioos:station:DISL:KATA:1,2012-10-01T09:30:00Z,30.2583,-88.2131,0.0,11.6,230.7,-9999.0,'1111122,1111122,1111122' 
DISL,ioos:station:DISL:KATA:1,2012-10-01T10:00:00Z,30.2583,-88.2131,0.0,10.01,231.0,-9999.0,'1111122,1111122,1111122' 
DISL,ioos:station:DISL:KATA:1,2012-10-01T10:30:00Z,30.2583,-88.2131,0.0,10.52,226.3,-9999.0,'1111122,1111122,1111122' 
DISL,ioos:station:DISL:KATA:1,2012-10-01T11:00:00Z,30.2583,-88.2131,0.0,10.72,232.0,-9999.0,'1111122,1111122,1111122' 
DISL,ioos:station:DISL:KATA:1,2012-10-01T11:30:00Z,30.2583,-88.2131,0.0,10.06,235.3,-9999.0,'1111122,1111122,1111122' 
DISL,ioos:station:DISL:KATA:1,2012-10-01T12:00:00Z,30.2583,-88.2131,0.0,10.42,243.9,-9999.0,'1111122,1111122,1111122' 
DISL,ioos:station:DISL:KATA:1,2012-10-01T12:30:00Z,30.2583,-88.2131,0.0,11.47,245.5,-9999.0,'1111122,1111122,1111122' 
DISL,ioos:station:DISL:KATA:1,2012-10-01T13:00:00Z,30.2583,-88.2131,0.0,9.15,254.2,-9999.0,'1111122,1111122,1111122' 
DISL,ioos:station:DISL:KATA:1,2012-10-01T13:30:00Z,30.2583,-88.2131,0.0,10.44,251.3,-9999.0,'1111122,1111122,1111122' 
DISL,ioos:station:DISL:KATA:1,2012-10-01T14:00:00Z,30.2583,-88.2131,0.0,10.15,252.4,-9999.0,'1111122,1111122,1111122' 
DISL,ioos:station:DISL:KATA:1,2012-10-01T14:30:00Z,30.2583,-88.2131,0.0,9.96,248.3,-9999.0,'1111122,1111122,1111122' 
DISL,ioos:station:DISL:KATA:1,2012-10-01T15:00:00Z,30.2583,-88.2131,0.0,10.17,240.4,-9999.0,'1111122,1111122,1111122' 
DISL,ioos:station:DISL:KATA:1,2012-10-01T15:30:00Z,30.2583,-88.2131,0.0,9.66,248.8,-9999.0,'1111122,1111122,1111122' 
DISL,ioos:station:DISL:KATA:1,2012-10-01T16:00:00Z,30.2583,-88.2131,0.0,10.1,249.1,-9999.0,'1111122,1111122,1111122' 
DISL,ioos:station:DISL:KATA:1,2012-10-01T16:30:00Z,30.2583,-88.2131,0.0,10.85,244.2,-9999.0,'1111122,1111122,1111122' 
DISL,ioos:station:DISL:KATA:1,2012-10-01T17:00:00Z,30.2583,-88.2131,0.0,11.13,233.5,-9999.0,'1111122,1111122,1111122' 
DISL,ioos:station:DISL:KATA:1,2012-10-01T17:30:00Z,30.2583,-88.2131,0.0,9.89,247.1,-9999.0,'1111122,1111122,1111122' 
DISL,ioos:station:DISL:KATA:1,2012-10-01T18:00:00Z,30.2583,-88.2131,0.0,9.86,241.8,-9999.0,'1111122,1111122,1111122' 
DISL,ioos:station:DISL:KATA:1,2012-10-01T18:30:00Z,30.2583,-88.2131,0.0,9.63,236.1,-9999.0,'1111122,1111122,1111122' 
DISL,ioos:station:DISL:KATA:1,2012-10-01T19:00:00Z,30.2583,-88.2131,0.0,8.94,238.3,-9999.0,'1111122,1111122,1111122' 
DISL,ioos:station:DISL:KATA:1,2012-10-01T19:30:00Z,30.2583,-88.2131,0.0,8.23,238.7,-9999.0,'1111122,1111122,1111122' 
DISL,ioos:station:DISL:KATA:1,2012-10-01T20:00:00Z,30.2583,-88.2131,0.0,8.37,237.3,-9999.0,'1111122,1111122,1111122' 
DISL,ioos:station:DISL:KATA:1,2012-10-01T20:30:00Z,30.2583,-88.2131,0.0,7.4,237.4,-9999.0,'1111122,1111122,1111122' 
DISL,ioos:station:DISL:KATA:1,2012-10-01T21:00:00Z,30.2583,-88.2131,0.0,8.79,240.8,-9999.0,'1111122,1111122,1111122' 
DISL,ioos:station:DISL:KATA:1,2012-10-01T21:30:00Z,30.2583,-88.2131,0.0,8.3,251.0,-9999.0,'1111122,1111122,1111122' 
DISL,ioos:station:DISL:KATA:1,2012-10-01T22:00:00Z,30.2583,-88.2131,0.0,9.61,260.0,-9999.0,'1111122,1111122,1111122' 
DISL,ioos:station:DISL:KATA:1,2012-10-01T22:30:00Z,30.2583,-88.2131,0.0,9.55,266.3,-9999.0,'1111122,1111122,1111122' 
DISL,ioos:station:DISL:KATA:1,2012-10-01T23:00:00Z,30.2583,-88.2131,0.0,7.93,289.0,-9999.0,'1111122,1111122,1111122' 
DISL,ioos:station:DISL:KATA:1,2012-10-01T23:30:00Z,30.2583,-88.2131,0.0,7.82,284.2,-9999.0,'1111122,1111122,1111122' 
DISL,ioos:station:DISL:KATA:1,2012-10-02T00:00:00Z,30.2583,-88.2131,0.0,8.39,307.1,-9999.0,'1111122,1111122,1111122' 
DISL,ioos:station:DISL:KATA:1,2012-10-02T00:30:00Z,30.2583,-88.2131,0.0,9.78,303.1,-9999.0,'1111122,1111122,1111122' 
DISL,ioos:station:DISL:KATA:1,2012-10-02T01:00:00Z,30.2583,-88.2131,0.0,8.26,295.8,-9999.0,'1111122,1111122,1111122' 
DISL,ioos:station:DISL:KATA:1,2012-10-02T01:30:00Z,30.2583,-88.2131,0.0,6.94,302.1,-9999.0,'1111122,1111122,1111122' 
DISL,ioos:station:DISL:KATA:1,2012-10-02T02:00:00Z,30.2583,-88.2131,0.0,7.81,292.4,-9999.0,'1111122,1111122,1111122' 
DISL,ioos:station:DISL:KATA:1,2012-10-02T02:30:00Z,30.2583,-88.2131,0.0,8.16,304.7,-9999.0,'1111122,1111122,1111122' 
DISL,ioos:station:DISL:KATA:1,2012-10-02T03:00:00Z,30.2583,-88.2131,0.0,7.11,300.1,-9999.0,'1111122,1111122,1111122' 
DISL,ioos:station:DISL:KATA:1,2012-10-02T03:30:00Z,30.2583,-88.2131,0.0,7.53,300.9,-9999.0,'1111122,1111122,1111122' 
DISL,ioos:station:DISL:KATA:1,2012-10-02T04:00:00Z,30.2583,-88.2131,0.0,8.31,307.5,-9999.0,'1111122,1111122,1111122' 
DISL,ioos:station:DISL:KATA:1,2012-10-02T04:30:00Z,30.2583,-88.2131,0.0,6.99,300.5,-9999.0,'1111122,1111122,1111122' 
DISL,ioos:station:DISL:KATA:1,2012-10-02T05:00:00Z,30.2583,-88.2131,0.0,7.79,298.5,-9999.0,'1111122,1111122,1111122' 
DISL,ioos:station:DISL:KATA:1,2012-10-02T05:30:00Z,30.2583,-88.2131,0.0,6.59,294.5,-9999.0,'1111122,1111122,1111122' 
DISL,ioos:station:DISL:KATA:1,2012-10-02T06:00:00Z,30.2583,-88.2131,0.0,6.09,301.8,-9999.0,'1111122,1111122,1111122' 
DISL,ioos:station:DISL:KATA:1,2012-10-02T06:30:00Z,30.2583,-88.2131,0.0,6.31,300.1,-9999.0,'1111122,1111122,1111122' 
DISL,ioos:station:DISL:KATA:1,2012-10-02T07:00:00Z,30.2583,-88.2131,0.0,6.02,301.7,-9999.0,'1111122,1111122,1111122' 
DISL,ioos:station:DISL:KATA:1,2012-10-02T07:30:00Z,30.2583,-88.2131,0.0,5.61,301.9,-9999.0,'1111122,1111122,1111122' 
DISL,ioos:station:DISL:KATA:1,2012-10-02T08:00:00Z,30.2583,-88.2131,0.0,6.09,299.6,-9999.0,'1111122,1111122,1111122' 
DISL,ioos:station:DISL:KATA:1,2012-10-02T08:30:00Z,30.2583,-88.2131,0.0,6.97,303.9,-9999.0,'1111122,1111122,1111122' 
DISL,ioos:station:DISL:KATA:1,2012-10-02T09:00:00Z,30.2583,-88.2131,0.0,7.12,295.3,-9999.0,'1111122,1111122,1111122' 
DISL,ioos:station:DISL:KATA:1,2012-10-02T09:30:00Z,30.2583,-88.2131,0.0,7.06,300.5,-9999.0,'1111122,1111122,1111122' 
DISL,ioos:station:DISL:KATA:1,2012-10-02T10:00:00Z,30.2583,-88.2131,0.0,6.61,305.1,-9999.0,'1111122,1111122,1111122' 
DISL,ioos:station:DISL:KATA:1,2012-10-02T10:30:00Z,30.2583,-88.2131,0.0,6.44,313.8,-9999.0,'1111122,1111122,1111122' 
DISL,ioos:station:DISL:KATA:1,2012-10-02T11:00:00Z,30.2583,-88.2131,0.0,6.91,310.4,-9999.0,'1111122,1111122,1111122' 
DISL,ioos:station:DISL:KATA:1,2012-10-02T11:30:00Z,30.2583,-88.2131,0.0,7.24,301.9,-9999.0,'1111122,1111122,1111122' 
DISL,ioos:station:DISL:KATA:1,2012-10-02T12:00:00Z,30.2583,-88.2131,0.0,8.5,306.0,-9999.0,'1111122,1111122,1111122' 
DISL,ioos:station:DISL:KATA:1,2012-10-02T12:30:00Z,30.2583,-88.2131,0.0,7.03,309.4,-9999.0,'1111122,1111122,1111122' 
DISL,ioos:station:DISL:KATA:1,2012-10-02T13:00:00Z,30.2583,-88.2131,0.0,7.1,304.2,-9999.0,'1111122,1111122,1111122' 
DISL,ioos:station:DISL:KATA:1,2012-10-02T13:30:00Z,30.2583,-88.2131,0.0,5.72,311.0,-9999.0,'1111122,1111122,1111122' 
DISL,ioos:station:DISL:KATA:1,2012-10-02T14:00:00Z,30.2583,-88.2131,0.0,4.34,308.5,-9999.0,'1111122,1111122,1111122' 
DISL,ioos:station:DISL:KATA:1,2012-10-02T14:30:00Z,30.2583,-88.2131,0.0,3.21,305.3,-9999.0,'1111122,1111122,1111122' 
DISL,ioos:station:DISL:KATA:1,2012-10-02T15:00:00Z,30.2583,-88.2131,0.0,3.79,301.6,-9999.0,'1111122,1111122,1111122' 
DISL,ioos:station:DISL:KATA:1,2012-10-02T15:30:00Z,30.2583,-88.2131,0.0,4.33,306.1,-9999.0,'1111122,1111122,1111122' 
DISL,ioos:station:DISL:KATA:1,2012-10-02T16:00:00Z,30.2583,-88.2131,0.0,3.2,286.5,-9999.0,'1111122,1111122,1111122' 
DISL,ioos:station:DISL:KATA:1,2012-10-02T16:30:00Z,30.2583,-88.2131,0.0,2.08,283.6,-9999.0,'1111122,1111122,1111122' 
DISL,ioos:station:DISL:KATA:1,2012-10-02T17:00:00Z,30.2583,-88.2131,0.0,1.77,276.0,-9999.0,'1111122,1111122,1111122' 
DISL,ioos:station:DISL:KATA:1,2012-10-02T17:30:00Z,30.2583,-88.2131,0.0,2.3,283.8,-9999.0,'1111122,1111122,1111122' 
DISL,ioos:station:DISL:KATA:1,2012-10-02T18:00:00Z,30.2583,-88.2131,0.0,3.81,264.4,-9999.0,'1111122,1111122,1111122' 
DISL,ioos:station:DISL:KATA:1,2012-10-02T18:30:00Z,30.2583,-88.2131,0.0,3.49,263.8,-9999.0,'1111122,1111122,1111122' 
DISL,ioos:station:DISL:KATA:1,2012-10-02T19:00:00Z,30.2583,-88.2131,0.0,4.2,259.0,-9999.0,'1111122,1111122,1111122' 
DISL,ioos:station:DISL:KATA:1,2012-10-02T19:30:00Z,30.2583,-88.2131,0.0,4.66,261.2,-9999.0,'1111122,1111122,1111122' 
DISL,ioos:station:DISL:KATA:1,2012-10-02T20:00:00Z,30.2583,-88.2131,0.0,4.19,257.1,-9999.0,'1111122,1111122,1111122' 
DISL,ioos:station:DISL:KATA:1,2012-10-02T20:30:00Z,30.2583,-88.2131,0.0,3.83,254.1,-9999.0,'1111122,1111122,1111122' 
DISL,ioos:station:DISL:KATA:1,2012-10-02T21:00:00Z,30.2583,-88.2131,0.0,3.33,250.4,-9999.0,'1111122,1111122,1111122' 
DISL,ioos:station:DISL:KATA:1,2012-10-02T21:30:00Z,30.2583,-88.2131,0.0,3.99,251.5,-9999.0,'1111122,1111122,1111122' 
DISL,ioos:station:DISL:KATA:1,2012-10-02T22:00:00Z,30.2583,-88.2131,0.0,4.36,247.3,-9999.0,'1111122,1111122,1111122' 
DISL,ioos:station:DISL:KATA:1,2012-10-02T22:30:00Z,30.2583,-88.2131,0.0,4.29,255.4,-9999.0,'1111122,1111122,1111122' 
DISL,ioos:station:DISL:KATA:1,2012-10-02T23:00:00Z,30.2583,-88.2131,0.0,3.83,255.9,-9999.0,'1111122,1111122,1111122' 
DISL,ioos:station:DISL:KATA:1,2012-10-02T23:30:00Z,30.2583,-88.2131,0.0,3.47,251.4,-9999.0,'1111122,1111122,1111122' 
DISL,ioos:station:DISL:KATA:1,2012-10-03T00:00:00Z,30.2583,-88.2131,0.0,3.51,264.9,-9999.0,'1111122,1111122,1111122' 
DISL,ioos:station:DISL:KATA:1,2012-10-03T00:30:00Z,30.2583,-88.2131,0.0,3.26,268.5,-9999.0,'1111122,1111122,1111122' 
DISL,ioos:station:DISL:KATA:1,2012-10-03T01:00:00Z,30.2583,-88.2131,0.0,3.13,278.4,-9999.0,'1111122,1111122,1111122' 
DISL,ioos:station:DISL:KATA:1,2012-10-03T01:30:00Z,30.2583,-88.2131,0.0,2.29,283.9,-9999.0,'1111122,1111122,1111122' 
DISL,ioos:station:DISL:KATA:1,2012-10-03T02:00:00Z,30.2583,-88.2131,0.0,0.89,301.4,-9999.0,'1111122,1111122,1111122' 
DISL,ioos:station:DISL:KATA:1,2012-10-03T02:30:00Z,30.2583,-88.2131,0.0,1.09,282.8,-9999.0,'1111122,1111122,1111122' 
DISL,ioos:station:DISL:KATA:1,2012-10-03T03:00:00Z,30.2583,-88.2131,0.0,1.57,322.9,-9999.0,'1111122,1111122,1111122' 
DISL,ioos:station:DISL:KATA:1,2012-10-03T03:30:00Z,30.2583,-88.2131,0.0,0.39,293.5,-9999.0,'1111122,1111122,1111122' 
DISL,ioos:station:DISL:KATA:1,2012-10-03T04:00:00Z,30.2583,-88.2131,0.0,0.29,269.6,-9999.0,'1111122,1111122,1111122' 
DISL,ioos:station:DISL:KATA:1,2012-10-03T04:30:00Z,30.2583,-88.2131,0.0,0.04,170.8,-9999.0,'1111122,1111122,1111122' 
DISL,ioos:station:DISL:KATA:1,2012-10-03T05:00:00Z,30.2583,-88.2131,0.0,0.48,289.4,-9999.0,'1111122,1111122,1111122' 
DISL,ioos:station:DISL:KATA:1,2012-10-03T05:30:00Z,30.2583,-88.2131,0.0,3.2,26.72,-9999.0,'1111122,1111122,1111122' 
DISL,ioos:station:DISL:KATA:1,2012-10-03T06:00:00Z,30.2583,-88.2131,0.0,3.47,38.3,-9999.0,'1111122,1111122,1111122' 
DISL,ioos:station:DISL:KATA:1,2012-10-03T06:30:00Z,30.2583,-88.2131,0.0,3.77,52.07,-9999.0,'1111122,1111122,1111122' 
DISL,ioos:station:DISL:KATA:1,2012-10-03T07:00:00Z,30.2583,-88.2131,0.0,4.26,63.09,-9999.0,'1111122,1111122,1111122' 
DISL,ioos:station:DISL:KATA:1,2012-10-03T07:30:00Z,30.2583,-88.2131,0.0,3.5,63.39,-9999.0,'1111122,1111122,1111122' 
DISL,ioos:station:DISL:KATA:1,2012-10-03T08:00:00Z,30.2583,-88.2131,0.0,4.06,72.12,-9999.0,'1111122,1111122,1111122' 
DISL,ioos:station:DISL:KATA:1,2012-10-03T08:30:00Z,30.2583,-88.2131,0.0,4.15,68.97,-9999.0,'1111122,1111122,1111122' 
DISL,ioos:station:DISL:KATA:1,2012-10-03T09:00:00Z,30.2583,-88.2131,0.0,3.25,70.73,-9999.0,'1111122,1111122,1111122' 
DISL,ioos:station:DISL:KATA:1,2012-10-03T09:30:00Z,30.2583,-88.2131,0.0,3.28,86.8,-9999.0,'1111122,1111122,1111122' 
DISL,ioos:station:DISL:KATA:1,2012-10-03T10:00:00Z,30.2583,-88.2131,0.0,4.33,75.71,-9999.0,'1111122,1111122,1111122' 
DISL,ioos:station:DISL:KATA:1,2012-10-03T10:30:00Z,30.2583,-88.2131,0.0,4.89,75.88,-9999.0,'1111122,1111122,1111122' 
DISL,ioos:station:DISL:KATA:1,2012-10-03T11:00:00Z,30.2583,-88.2131,0.0,5.32,80.2,-9999.0,'1111122,1111122,1111122' 
DISL,ioos:station:DISL:KATA:1,2012-10-03T11:30:00Z,30.2583,-88.2131,0.0,4.88,76.61,-9999.0,'1111122,1111122,1111122' 
DISL,ioos:station:DISL:KATA:1,2012-10-03T12:00:00Z,30.2583,-88.2131,0.0,5.08,83.9,-9999.0,'1111122,1111122,1111122' 
DISL,ioos:station:DISL:KATA:1,2012-10-03T12:30:00Z,30.2583,-88.2131,0.0,5.57,74.96,-9999.0,'1111122,1111122,1111122' 
DISL,ioos:station:DISL:KATA:1,2012-10-03T13:00:00Z,30.2583,-88.2131,0.0,5.54,81.4,-9999.0,'1111122,1111122,1111122' 
DISL,ioos:station:DISL:KATA:1,2012-10-03T13:30:00Z,30.2583,-88.2131,0.0,4.93,78.71,-9999.0,'1111122,1111122,1111122' 
DISL,ioos:station:DISL:KATA:1,2012-10-03T14:00:00Z,30.2583,-88.2131,0.0,5.2,79.86,-9999.0,'1111122,1111122,1111122' 
DISL,ioos:station:DISL:KATA:1,2012-10-03T14:30:00Z,30.2583,-88.2131,0.0,5.85,77.91,-9999.0,'1111122,1111122,1111122' 
DISL,ioos:station:DISL:KATA:1,2012-10-03T15:00:00Z,30.2583,-88.2131,0.0,5.5,71.96,-9999.0,'1111122,1111122,1111122' 
DISL,ioos:station:DISL:KATA:1,2012-10-03T15:30:00Z,30.2583,-88.2131,0.0,5.9,76.06,-9999.0,'1111122,1111122,1111122' 
DISL,ioos:station:DISL:KATA:1,2012-10-03T16:00:00Z,30.2583,-88.2131,0.0,6.03,70.8,-9999.0,'1111122,1111122,1111122' 
DISL,ioos:station:DISL:KATA:1,2012-10-03T16:30:00Z,30.2583,-88.2131,0.0,5.57,74.24,-9999.0,'1111122,1111122,1111122' 
DISL,ioos:station:DISL:KATA:1,2012-10-03T17:00:00Z,30.2583,-88.2131,0.0,4.79,65.13,-9999.0,'1111122,1111122,1111122' 
DISL,ioos:station:DISL:KATA:1,2012-10-03T17:30:00Z,30.2583,-88.2131,0.0,5.04,72.17,-9999.0,'1111122,1111122,1111122' 
DISL,ioos:station:DISL:KATA:1,2012-10-03T18:00:00Z,30.2583,-88.2131,0.0,4.06,78.3,-9999.0,'1111122,1111122,1111122' 
DISL,ioos:station:DISL:KATA:1,2012-10-03T18:30:00Z,30.2583,-88.2131,0.0,4.13,68.72,-9999.0,'1111122,1111122,1111122' 
DISL,ioos:station:DISL:KATA:1,2012-10-03T19:00:00Z,30.2583,-88.2131,0.0,4.39,85.2,-9999.0,'1111122,1111122,1111122' 
DISL,ioos:station:DISL:KATA:1,2012-10-03T19:30:00Z,30.2583,-88.2131,0.0,4.28,111.5,-9999.0,'1111122,1111122,1111122' 
DISL,ioos:station:DISL:KATA:1,2012-10-03T20:00:00Z,30.2583,-88.2131,0.0,5.44,113.2,-9999.0,'1111122,1111122,1111122' 
DISL,ioos:station:DISL:KATA:1,2012-10-03T20:30:00Z,30.2583,-88.2131,0.0,4.65,111.0,-9999.0,'1111122,1111122,1111122' 
DISL,ioos:station:DISL:KATA:1,2012-10-03T21:00:00Z,30.2583,-88.2131,0.0,4.6,113.0,-9999.0,'1111122,1111122,1111122' 
DISL,ioos:station:DISL:KATA:1,2012-10-03T21:30:00Z,30.2583,-88.2131,0.0,4.51,113.2,-9999.0,'1111122,1111122,1111122' 
DISL,ioos:station:DISL:KATA:1,2012-10-03T22:00:00Z,30.2583,-88.2131,0.0,5.02,105.6,-9999.0,'1111122,1111122,1111122' 
DISL,ioos:station:DISL:KATA:1,2012-10-03T22:30:00Z,30.2583,-88.2131,0.0,5.0,108.5,-9999.0,'1111122,1111122,1111122' 
DISL,ioos:station:DISL:KATA:1,2012-10-03T23:00:00Z,30.2583,-88.2131,0.0,5.37,111.6,-9999.0,'1111122,1111122,1111122' 
DISL,ioos:station:DISL:KATA:1,2012-10-03T23:30:00Z,30.2583,-88.2131,0.0,5.6,110.7,-9999.0,'1111122,1111122,1111122' 
DISL,ioos:station:DISL:KATA:1,2012-10-04T00:00:00Z,30.2583,-88.2131,0.0,4.84,115.0,-9999.0,'1111122,1111122,1111122' 
DISL,ioos:station:DISL:KATA:1,2012-10-04T00:30:00Z,30.2583,-88.2131,0.0,5.26,104.2,-9999.0,'1111122,1111122,1111122' 
DISL,ioos:station:DISL:KATA:1,2012-10-04T01:00:00Z,30.2583,-88.2131,0.0,6.31,101.1,-9999.0,'1111122,1111122,1111122' 
DISL,ioos:station:DISL:KATA:1,2012-10-04T01:30:00Z,30.2583,-88.2131,0.0,5.55,90.4,-9999.0,'1111122,1111122,1111122' 
DISL,ioos:station:DISL:KATA:1,2012-10-04T02:00:00Z,30.2583,-88.2131,0.0,5.6,89.5,-9999.0,'1111122,1111122,1111122' 
DISL,ioos:station:DISL:KATA:1,2012-10-04T02:30:00Z,30.2583,-88.2131,0.0,5.56,91.0,-9999.0,'1111122,1111122,1111122' 
DISL,ioos:station:DISL:KATA:1,2012-10-04T03:00:00Z,30.2583,-88.2131,0.0,5.17,86.6,-9999.0,'1111122,1111122,1111122' 
DISL,ioos:station:DISL:KATA:1,2012-10-04T03:30:00Z,30.2583,-88.2131,0.0,5.41,83.1,-9999.0,'1111122,1111122,1111122' 
DISL,ioos:station:DISL:KATA:1,2012-10-04T04:00:00Z,30.2583,-88.2131,0.0,5.98,81.1,-9999.0,'1111122,1111122,1111122' 
DISL,ioos:station:DISL:KATA:1,2012-10-04T04:30:00Z,30.2583,-88.2131,0.0,6.94,82.0,-9999.0,'1111122,1111122,1111122' 
DISL,ioos:station:DISL:KATA:1,2012-10-04T05:00:00Z,30.2583,-88.2131,0.0,5.96,72.47,-9999.0,'1111122,1111122,1111122' 
DISL,ioos:station:DISL:KATA:1,2012-10-04T05:30:00Z,30.2583,-88.2131,0.0,6.08,68.15,-9999.0,'1111122,1111122,1111122' 
DISL,ioos:station:DISL:KATA:1,2012-10-04T06:00:00Z,30.2583,-88.2131,0.0,5.93,62.03,-9999.0,'1111122,1111122,1111122' 
DISL,ioos:station:DISL:KATA:1,2012-10-04T06:30:00Z,30.2583,-88.2131,0.0,5.81,60.16,-9999.0,'1111122,1111122,1111122' 
DISL,ioos:station:DISL:KATA:1,2012-10-04T07:00:00Z,30.2583,-88.2131,0.0,5.77,58.18,-9999.0,'1111122,1111122,1111122' 
DISL,ioos:station:DISL:KATA:1,2012-10-04T07:30:00Z,30.2583,-88.2131,0.0,5.98,63.14,-9999.0,'1111122,1111122,1111122' 
DISL,ioos:station:DISL:KATA:1,2012-10-04T08:00:00Z,30.2583,-88.2131,0.0,5.77,62.69,-9999.0,'1111122,1111122,1111122' 
DISL,ioos:station:DISL:KATA:1,2012-10-04T08:30:00Z,30.2583,-88.2131,0.0,6.1,59.67,-9999.0,'1111122,1111122,1111122' 
DISL,ioos:station:DISL:KATA:1,2012-10-04T09:00:00Z,30.2583,-88.2131,0.0,6.42,62.24,-9999.0,'1111122,1111122,1111122' 
DISL,ioos:station:DISL:KATA:1,2012-10-04T09:30:00Z,30.2583,-88.2131,0.0,6.27,56.7,-9999.0,'1111122,1111122,1111122' 
DISL,ioos:station:DISL:KATA:1,2012-10-04T10:00:00Z,30.2583,-88.2131,0.0,6.38,58.33,-9999.0,'1111122,1111122,1111122' 
DISL,ioos:station:DISL:KATA:1,2012-10-04T10:30:00Z,30.2583,-88.2131,0.0,6.07,49.9,-9999.0,'1111122,1111122,1111122' 
DISL,ioos:station:DISL:KATA:1,2012-10-04T11:00:00Z,30.2583,-88.2131,0.0,6.36,59.29,-9999.0,'1111122,1111122,1111122' 
DISL,ioos:station:DISL:KATA:1,2012-10-04T11:30:00Z,30.2583,-88.2131,0.0,6.85,57.33,-9999.0,'1111122,1111122,1111122' 
DISL,ioos:station:DISL:KATA:1,2012-10-04T12:00:00Z,30.2583,-88.2131,0.0,6.91,58.12,-9999.0,'1111122,1111122,1111122' 
DISL,ioos:station:DISL:KATA:1,2012-10-04T12:30:00Z,30.2583,-88.2131,0.0,7.37,60.89,-9999.0,'1111122,1111122,1111122' 
DISL,ioos:station:DISL:KATA:1,2012-10-04T13:00:00Z,30.2583,-88.2131,0.0,7.1,61.01,-9999.0,'1111122,1111122,1111122' 
DISL,ioos:station:DISL:KATA:1,2012-10-04T13:30:00Z,30.2583,-88.2131,0.0,6.2,55.71,-9999.0,'1111122,1111122,1111122' 
DISL,ioos:station:DISL:KATA:1,2012-10-04T14:00:00Z,30.2583,-88.2131,0.0,6.49,53.8,-9999.0,'1111122,1111122,1111122' 
DISL,ioos:station:DISL:KATA:1,2012-10-04T14:30:00Z,30.2583,-88.2131,0.0,6.24,57.38,-9999.0,'1111122,1111122,1111122' 
DISL,ioos:station:DISL:KATA:1,2012-10-04T15:00:00Z,30.2583,-88.2131,0.0,6.9,54.75,-9999.0,'1111122,1111122,1111122' 
DISL,ioos:station:DISL:KATA:1,2012-10-04T15:30:00Z,30.2583,-88.2131,0.0,7.07,53.7,-9999.0,'1111122,1111122,1111122' 
DISL,ioos:station:DISL:KATA:1,2012-10-04T16:00:00Z,30.2583,-88.2131,0.0,6.85,55.87,-9999.0,'1111122,1111122,1111122' 
DISL,ioos:station:DISL:KATA:1,2012-10-04T16:30:00Z,30.2583,-88.2131,0.0,5.77,46.68,-9999.0,'1111122,1111122,1111122' 
DISL,ioos:station:DISL:KATA:1,2012-10-04T17:00:00Z,30.2583,-88.2131,0.0,4.94,63.28,-9999.0,'1111122,1111122,1111122' 
DISL,ioos:station:DISL:KATA:1,2012-10-04T17:30:00Z,30.2583,-88.2131,0.0,4.49,67.85,-9999.0,'1111122,1111122,1111122' 
DISL,ioos:station:DISL:KATA:1,2012-10-04T18:00:00Z,30.2583,-88.2131,0.0,4.93,72.27,-9999.0,'1111122,1111122,1111122' 
DISL,ioos:station:DISL:KATA:1,2012-10-04T18:30:00Z,30.2583,-88.2131,0.0,5.41,64.35,-9999.0,'1111122,1111122,1111122' 
DISL,ioos:station:DISL:KATA:1,2012-10-04T19:00:00Z,30.2583,-88.2131,0.0,4.7,66.97,-9999.0,'1111122,1111122,1111122' 
DISL,ioos:station:DISL:KATA:1,2012-10-04T19:30:00Z,30.2583,-88.2131,0.0,3.73,74.23,-9999.0,'1111122,1111122,1111122' 
DISL,ioos:station:DISL:KATA:1,2012-10-04T20:00:00Z,30.2583,-88.2131,0.0,3.48,65.61,-9999.0,'1111122,1111122,1111122' 
DISL,ioos:station:DISL:KATA:1,2012-10-04T20:30:00Z,30.2583,-88.2131,0.0,2.6,73.43,-9999.0,'1111122,1111122,1111122' 
DISL,ioos:station:DISL:KATA:1,2012-10-04T21:00:00Z,30.2583,-88.2131,0.0,2.55,94.6,-9999.0,'1111122,1111122,1111122' 
DISL,ioos:station:DISL:KATA:1,2012-10-04T21:30:00Z,30.2583,-88.2131,0.0,3.07,95.5,-9999.0,'1111122,1111122,1111122' 
DISL,ioos:station:DISL:KATA:1,2012-10-04T22:00:00Z,30.2583,-88.2131,0.0,2.95,89.4,-9999.0,'1111122,1111122,1111122' 
DISL,ioos:station:DISL:KATA:1,2012-10-04T22:30:00Z,30.2583,-88.2131,0.0,2.95,80.9,-9999.0,'1111122,1111122,1111122' 
DISL,ioos:station:DISL:KATA:1,2012-10-04T23:00:00Z,30.2583,-88.2131,0.0,2.62,122.5,-9999.0,'1111122,1111122,1111122' 
DISL,ioos:station:DISL:KATA:1,2012-10-04T23:30:00Z,30.2583,-88.2131,0.0,3.06,147.9,-9999.0,'1111122,1111122,1111122' 
DISL,ioos:station:DISL:KATA:1,2012-10-05T00:00:00Z,30.2583,-88.2131,0.0,2.62,151.5,-9999.0,'1111122,1111122,1111122' 
DISL,ioos:station:DISL:KATA:1,2012-10-05T00:30:00Z,30.2583,-88.2131,0.0,2.65,139.5,-9999.0,'1111122,1111122,1111122' 
DISL,ioos:station:DISL:KATA:1,2012-10-05T01:00:00Z,30.2583,-88.2131,0.0,3.61,137.9,-9999.0,'1111122,1111122,1111122' 
DISL,ioos:station:DISL:KATA:1,2012-10-05T01:30:00Z,30.2583,-88.2131,0.0,2.78,132.7,-9999.0,'1111122,1111122,1111122' 
DISL,ioos:station:DISL:KATA:1,2012-10-05T02:00:00Z,30.2583,-88.2131,0.0,1.51,127.2,-9999.0,'1111122,1111122,1111122' 
DISL,ioos:station:DISL:KATA:1,2012-10-05T02:30:00Z,30.2583,-88.2131,0.0,0.56,82.1,-9999.0,'1111122,1111122,1111122' 
DISL,ioos:station:DISL:KATA:1,2012-10-05T03:00:00Z,30.2583,-88.2131,0.0,0.95,359.5,-9999.0,'1111122,1111122,1111122' 
DISL,ioos:station:DISL:KATA:1,2012-10-05T03:30:00Z,30.2583,-88.2131,0.0,1.11,29.2,-9999.0,'1111122,1111122,1111122' 
DISL,ioos:station:DISL:KATA:1,2012-10-05T04:00:00Z,30.2583,-88.2131,0.0,1.66,60.87,-9999.0,'1111122,1111122,1111122' 
DISL,ioos:station:DISL:KATA:1,2012-10-05T04:30:00Z,30.2583,-88.2131,0.0,2.0,50.5,-9999.0,'1111122,1111122,1111122' 